Location: Rowland
(34.5359°N, 79.2929°W)
Time: 20:18:14
(UTC+00:00)

Transit 2A - Pass Details

Date: 05 October 2022
Orbit: 598 x 959 km, 66.7° (Epoch: 03 December)

Event Time Altitude Azimuth Distance (km) Brightness Sun altitude
Rises 04:25:05 0° 243° (WSW) 2,926 - -58.7°
Reaches altitude 10° 04:28:03 10° 263° (W) 1,979 - -58.9°
Maximum altitude 04:31:02 18° 306° (NW) 1,519 - -59.1°
Drops below altitude 10° 04:33:58 10° 349° (N) 1,941 - -59.3°
Sets 04:36:52 0° 10° (N) 2,846 - -59.4°
